Terug naar catalogus

COURIER 1B

ActiefMilitairLEO
NORAD 58·PAYLOAD·🇺🇸 United States

Gelanceerd Oct 4, 1960 vanaf Cape Canaveral Space Force Station

Loading…

Volgende Passages (komende 24 uur)

TLE

VersSource: Space-Track

Epoch: Sep 14, 2026, 09:09 UTC

1 00058U 60013A   26257.38144500  .00000103  00000-0  22909-4 0  9990
2 00058  28.3290  47.1406 0164886 226.4154 132.2598 13.46432724246095

Volg COURIER 1B in realtime met AllMySat

Download on the App Store